Location: Ethel Rock
(53.4667°N, 4.5667°W)
Time: 04:29:02
(UTC+00:00)

Cosmos 2322 Rocket - Pass Details

Date: 24 October 2020
Orbit: 832 x 851 km, 71.0° (Epoch: 25 November)

Event Time Altitude Azimuth Distance (km) Brightness Sun altitude
Exits shadow 04:21:40 - 332° (NNW) 2,824 4.8 -24.4°
Reaches altitude 10° 04:22:53 10° 340° (NNW) 2,489 4.6 -24.3°
Maximum altitude 04:26:59 20° 27° (NNE) 1,883 4.4 -23.7°
Drops below altitude 10° 04:31:05 10° 73° (ENE) 2,477 5.7 -23.1°
Sets 04:34:14 0° 90° (E) 3,406 6.8 -22.6°
